Weather History for Beckley, WV

Change the Weather History Date:

Friday, May 3, 2013

  Actual Average Record
Temperature  
Mean Temperature 56 °F 57 °F  
Max Temperature 65 °F 68 °F 87 °F (1902)
Min Temperature 47 °F 46 °F 25 °F (1961)
Degree Days  
Heating Degree Days 9 9  
Month to date heating degree days 17 27  
Since 1 July heating degree days 5106 5136  
Cooling Degree Days 0 0  
Month to date cooling degree days 0 0  
Year to date cooling degree days 16 10  
Growing Degree Days 5 (Base 50)    
Moisture  
Dew Point 40 °F    
Average Humidity 58    
Maximum Humidity 82    
Minimum Humidity 34    
Precipitation  
Precipitation 0.00 in 0.14 in 1.04 in (2009)
Month to date precipitation 0.00 0.41  
Year to date precipitation 11.07 12.91  
Snow  
Snow 0.00 in - - ()
Month to date snowfall 0.0  
Since 1 September snowfall 72.0  
Snow Depth 0.00 in    
Sea Level Pressure  
Sea Level Pressure 30.17 in    
Wind  
Wind Speed 15 mph (SE)    
Max Wind Speed 28 mph    
Max Gust Speed 35 mph    
Visibility 10 miles    
Events      
T = Trace of Precipitation, MM = Missing Value Source: NWS Daily Summary

Daily Weather History Graph

Daily Weather History Graph

Search for Another Location

Airport:

Trip Planner

Search our weather history database for the weather conditions in past years. The results will help you decide how hot, cold, wet, or windy it might be!

Date:

Astronomy

May. 03, 2013 Rise Set
Actual Time 6:26 AM EDT 8:17 PM EDT
Civil Twilight 5:57 AM EDT 8:45 PM EDT
Nautical Twilight 5:23 AM EDT 9:20 PM EDT
Astronomical Twilight 4:46 AM EDT 9:57 PM EDT
Moon 2:43 AM EDT (5/3) 2:16 PM EDT (5/3)
Length of Visible Light 14h 47m
Length of Day
13h 50m
Last Quarter, 37% of the Moon is Illuminated
May 3
Last Quarter
May 9
New
May 18
First Quarter
May 25
Full
May 31
Last Quarter

Hourly Weather History & Observations

Time (EDT) Temp. Dew Point Humidity Pressure Visibility Wind Dir Wind Speed Gust Speed Precip Events Conditions
12:51 AM 54.0 °F 44.1 °F 69% 30.21 in 10.0 mi SE 11.5 mph - N/A   Clear
1:51 AM 52.0 °F 42.1 °F 69% 30.19 in 10.0 mi SE 6.9 mph - N/A   Clear
2:51 AM 51.1 °F 42.1 °F 71% 30.18 in 10.0 mi ESE 10.4 mph - N/A   Clear
3:51 AM 48.9 °F 39.0 °F 69% 30.17 in 10.0 mi ESE 4.6 mph - N/A   Clear
4:51 AM 48.9 °F 39.9 °F 71% 30.16 in 10.0 mi SE 11.5 mph - N/A   Clear
5:51 AM 48.0 °F 41.0 °F 77% 30.17 in 10.0 mi ESE 13.8 mph 20.7 mph N/A   Clear
6:51 AM 46.9 °F 41.0 °F 80% 30.19 in 10.0 mi ESE 15.0 mph - N/A   Clear
7:51 AM 48.9 °F 41.0 °F 74% 30.19 in 10.0 mi SE 10.4 mph 18.4 mph N/A   Clear
8:51 AM 52.0 °F 41.0 °F 66% 30.21 in 10.0 mi SE 15.0 mph 26.5 mph N/A   Clear
9:51 AM 55.0 °F 39.0 °F 55% 30.21 in 10.0 mi ESE 18.4 mph 25.3 mph N/A   Clear
10:51 AM 57.9 °F 37.0 °F 46% 30.19 in 10.0 mi SE 15.0 mph 26.5 mph N/A   Clear
11:51 AM 61.0 °F 37.9 °F 42% 30.19 in 10.0 mi SE 12.7 mph 21.9 mph N/A   Clear
12:51 PM 61.0 °F 36.0 °F 39% 30.18 in 10.0 mi SE 21.9 mph 31.1 mph N/A   Clear
1:51 PM 61.0 °F 35.1 °F 38% 30.17 in 10.0 mi SE 23.0 mph 33.4 mph N/A   Clear
2:51 PM 62.1 °F 35.1 °F 37% 30.15 in 10.0 mi SE 12.7 mph 32.2 mph N/A   Clear
3:51 PM 63.0 °F 34.0 °F 34% 30.14 in 10.0 mi ESE 15.0 mph 27.6 mph N/A   Clear
4:51 PM 63.0 °F 36.0 °F 37% 30.13 in 10.0 mi East 16.1 mph 25.3 mph N/A   Clear
5:51 PM 61.0 °F 37.0 °F 41% 30.14 in 10.0 mi ESE 19.6 mph 34.5 mph N/A   Clear
6:51 PM 59.0 °F 41.0 °F 51% 30.15 in 10.0 mi SE 20.7 mph 25.3 mph N/A   Clear
7:51 PM 57.0 °F 41.0 °F 55% 30.15 in 10.0 mi ESE 20.7 mph 31.1 mph N/A   Clear
8:51 PM 55.9 °F 42.1 °F 60% 30.15 in 10.0 mi SE 11.5 mph 27.6 mph N/A   Clear
9:51 PM 55.0 °F 43.0 °F 64% 30.15 in 10.0 mi SE 18.4 mph 33.4 mph N/A   Clear
10:51 PM 54.0 °F 43.0 °F 66% 30.14 in 10.0 mi SE 21.9 mph 33.4 mph N/A   Clear
11:51 PM 54.0 °F 42.1 °F 64% 30.10 in 10.0 mi ESE 16.1 mph 27.6 mph N/A   Clear